www.pogodaiklimat.ru

Погода и климат >> Архив погоды >> Оман >> Umzamaim


ПОГОДА в Umzamaim

  • Прогноз погоды в Umzamaim
  • Монитор погоды в Umzamaim
  • Климат города

АРХИВ ПОГОДЫ в Umzamaim

Время (UTC), дата Ветер
(напр.,м/с)
 
Видим.   Явления Облачность Т
(С)
Тd
(С)
f
(%)
Тe
(С)
Тes
(С)
Комфортность P
(гПа)
Po
(гПа)
Тmin
(С)
Tmax
(С)
R
(мм)
R24
(мм)
S
(см)
18 11.10 В 4 н/о н/о +26.7 +24.4 87 +37 +37 очень
душно
1010.5 996.2 +36.5
21 11.10 СВ 4 н/о н/о +25.2 +24.2 94 +35 +35 очень
душно
1009.8 995.4
00 12.10 СВ 4 н/о н/о +22.5 +19.5 83 +29 +29 очень
душно
1009.4 994.8
03 12.10 СВ 4 н/о н/о +20.9 +16.3 75 +25 +25 комфорт 1011.1 996.4
06 12.10 В 7 н/о н/о +29.3 +19.4 55 +35 +35 очень
душно
1012.4 998.1 +20.7
09 12.10 В 11 н/о н/о +34.6 +15.0 31 +36 +36 душно 1009.0 995.0
12 12.10 В 10 н/о н/о +33.3 +16.5 37 +36 +36 очень
душно
1008.3 994.2
15 12.10 В 8 н/о н/о +29.4 +21.8 64 +38 +38 очень
душно
1009.8 995.6
18 12.10 ЮВ 8 н/о н/о +27.2 +24.1 83 +38 +38 очень
душно
1011.3 996.9 +34.6
21 12.10 В 7 н/о н/о +25.7 +22.6 83 +34 +34 очень
душно
1010.9 996.5
00 13.10 В 4 н/о н/о +24.8 +21.9 84 +32 +32 очень
душно
1011.2 996.7
03 13.10 СВ 4 н/о н/о +24.4 +21.1 82 +31 +31 очень
душно
1012.9 998.3
06 13.10 В 8 н/о н/о +29.3 +22.9 68 +39 +39 очень
душно
1014.0 999.8 +24.2
09 13.10 В 8 н/о н/о +33.6 +19.8 44 +39 +39 очень
душно
1011.3 997.2
12 13.10 ЮВ 9 н/о н/о +32.2 +19.6 47 +38 +38 очень
душно
1010.6 996.5
15 13.10 В 8 н/о н/о +28.8 +21.6 65 +37 +37 очень
душно
1012.1 997.9
18 13.10 ЮВ 7 н/о н/о +27.1 +23.6 81 +37 +37 очень
душно
1013.7 999.3 +33.9
21 13.10 ЮВ 5 н/о н/о +26.6 +24.0 86 +37 +37 очень
душно
1013.1 998.8
00 14.10 ЮВ 2 н/о н/о +25.9 +24.8 94 +37 +37 очень
душно
1013.5 999.1
03 14.10 В 3 н/о н/о +25.9 +24.3 91 +36 +36 очень
душно
1014.6 1000.1
06 14.10 В 5 н/о н/о +27.5 +23.8 80 +38 +38 очень
душно
1016.5 1002.1 +25.5
09 14.10 ЮВ 3 н/о н/о +30.5 +21.2 58 +38 +38 очень
душно
1014.4 1000.2
12 14.10 В 2 н/о н/о +28.9 +17.6 50 +33 +33 очень
душно
1013.0 998.7
15 14.10 СВ 2 н/о н/о +27.7 +18.8 58 +33 +33 очень
душно
1014.0 999.6
18 14.10 ЮВ 4 н/о н/о +26.5 +20.8 71 +33 +33 очень
душно
1015.0 1000.6 +30.7
21 14.10 ЮЗ 2 н/о н/о +24.1 +22.5 91 +32 +32 очень
душно
1014.0 999.5
00 15.10 Ю 3 н/о н/о +22.9 +22.0 95 +31 +31 очень
душно
1013.6 999.1
03 15.10 СЗ 1 н/о н/о +22.9 +22.3 96 +31 +31 очень
душно
1015.6 1001.0
06 15.10 ЮЗ 3 н/о н/о +28.5 +21.5 66 +36 +36 очень
душно
1016.3 1001.9 +21.8
09 15.10 ЮВ 1 н/о н/о +33.4 +16.1 36 +36 +36 очень
душно
1013.1 999.0
12 15.10 Ю 3 н/о н/о +34.2 +13.9 29 +35 +35 очень
жарко
1011.7 997.6
15 15.10 СЗ 3 н/о н/о +32.4 +17.0 40 +36 +36 очень
душно
1012.8 998.7
18 15.10 Ю 8 н/о н/о +28.5 +19.0 56 1014.3 999.3 +35.3
21 15.10 ЮЗ 7 н/о н/о +26.1 +20.8 73 +33 +33 очень
душно
1013.9 999.4
00 16.10 З 4 н/о н/о +24.7 +22.1 85 +32 +32 очень
душно
1013.6 999.1
03 16.10 ЮЗ 4 н/о н/о +23.7 +20.3 81 +29 +29 душно 1014.9 1000.3
06 16.10 З 5 н/о н/о +29.5 +18.3 51 +34 +34 очень
душно
1015.6 1001.2 +23.7
09 16.10 З 2 н/о н/о +34.6 +15.0 31 +36 +36 душно 1012.5 998.4
12 16.10 ЮЗ 3 н/о н/о +35.7 +12.1 24 +35 +35 очень
жарко
1010.9 996.9
15 16.10 Ю 3 н/о н/о +33.3 +12.6 28 +34 +34 очень
жарко
1011.8 997.7
18 16.10 Ю 5 н/о н/о +29.1 +17.2 49 +33 +33 очень
душно
1013.5 999.2 +35.9
21 16.10 Ю 4 н/о н/о +26.6 +17.4 57 +31 +31 душно 1013.0 998.6
00 17.10 ЮЗ 3 н/о н/о +23.9 +18.6 72 +28 +28 душно 1012.9 998.4
03 17.10 ЮЗ 3 н/о н/о +23.0 +19.3 80 +29 +29 очень
душно
1014.4 999.8
06 17.10 ЮЗ 6 н/о н/о +29.8 +15.6 42 +33 +33 душно 1014.6 1000.3 +22.5
09 17.10 ЮЗ 3 н/о н/о +34.4 +13.2 28 +35 +35 очень
жарко
1011.8 997.8
12 17.10 Ю 2 н/о н/о +35.8 +11.8 24 +36 +36 очень
жарко
1009.6 995.6
15 17.10 З 3 н/о н/о +32.7 +12.3 29 +33 +33 жарко 1010.2 996.1
18 17.10 Ю 4 н/о н/о +29.6 +14.4 40 +32 +32 душно 1011.9 997.7 +36.4
21 17.10 Ю 5 н/о н/о +26.7 +16.0 52 +30 +30 душно 1011.6 997.2
00 18.10 Ю 3 н/о н/о +24.3 +19.0 72 +29 +29 душно 1011.8 997.2
03 18.10 З 2 н/о н/о +24.2 +20.8 81 +30 +30 очень
душно
1013.2 998.6
06 18.10 ЮЗ 3 н/о н/о +31.2 +14.2 36 +33 +33 жарко 1013.5 999.3 +23.9
09 18.10 н/о н/о +35.4 +11.4 23 1010.5 996.5
12 18.10 В 3 н/о н/о +36.1 +11.0 22 +35 +35 очень
жарко
1008.2 994.3

 

Местоположение метеостанции Umzamaim (Оман): широта 20.80 долгота 57.12 высота над уровнем моря 126 м.

В архиве по умолчанию представлена погода в Umzamaim за последнюю неделю. Архивные данные за месяц целиком и за предыдущие месяцы, начиная с января 2011 года, Вы можете получить, выбрав интересующий диапазон дат из раскрывающегося списка и нажав кнопку "Ввод!".


*Определитесь, кто Вы:
робот инопланетянин человек

Внимание! Время в таблицах - всемирное. Для получения местного времени необходимо прибавить поправку, которая в Umzamaim равна 4 ч.

Смотрите также архив погоды в соседних городах и на ближайших метеорологических станциях:

Погода в Qarn Alam (Оман) (64 км)
Погода в Yaaloni (Оман) (96 км)
Погода в Joba (Оман) (118 км)
Погода в Duqm (Оман) (142 км)
Погода в Adam (Оман) (181 км)
Погода в Fahud (Оман) (183 км)
Погода в Masirah (Оман) (186 км)
Погода в Al Mudhaibi (Оман) (217 км)
Погода в Nizwa (Оман) (232 км)
Погода в Bahla (Оман) (243 км)

Пояснения к столбцам:

Ветер - указаны скорость ветра в м/с - средняя за 10 мин, порывы в срок и между сроками (в фигурных скобках) и направление, откуда дует ветер: С - северный, СВ - северо-восточный, В - восточный, ЮВ - юго-восточный, Ю - южный, ЮЗ - юго-западный, З - западный, СЗ - северо-западный.
Видимость - горизонтальная дальность видимости в метрах или километрах. При видимости от 1 до 10 км при отсутствии осадков обычно наблюдается дымка, при ухудшении видимости до 1 км и менее - туман. В сухую погоду видимость может ухудшаться дымом, пылью или мглою.
Явления - указаны атмосферные явления, наблюдавшиеся в срок или в последний час перед сроком; фигурными скобками обозначены явления, наблюдавшиеся между сроками (за 1-3 часа до срока); квадратными скобками обозначены град или гололедные отложения с указанием их диаметра в мм.
Облачность - указаны через наклонную черту общая и нижняя облачность в баллах и высота нижней границы облаков в метрах; квадратными скобками обозначены формы облаков: Ci - перистые, Cs - перисто-слоистые, Cc - перисто-кучевые, Ac - высококучевые, As - высокослоистые, Sc - слоисто-кучевые, Ns - слоисто-дождевые, Cu - кучевые, Cb - кучево-дождевые. Подробнее классификацию облаков см. в Атласе облаков (PDF).
T - Температура воздуха - температура, измеренная на высоте 2 м над землей.
Td - Температура точки росы - температура, при понижении до которой содержащийся в воздухе водяной пар достигнет насыщения.
f - Относительная влажность воздуха - влажноcть воздуха, измеренная на высоте 2 м над землей.
Te - Эффективная температура - температура, которую ощущает одетый по сезону человек в тени. Характеристика душности погоды. При расчете учитывается влияние влажности воздуха и скорости ветра на теплоощущения человека.
Tes - Эффективная температура на солнце - температура, которую ощущает человек, с поправкой на солнечный нагрев. Характеристика знойности погоды. Зависит от высоты солнца над горизонтом, облачности и скорости ветра. Ночью, в пасмурную погоду, а также при ветре 12 м/с и более поправка равна нулю.
P - Атмосферное давление - приведенное к уровню моря атмосферное давление.
Po - Атмосферное давление - измеренное на уровне метеостанции атмосферное давление.
Tmin - Минимальная температура - минимум температуры воздуха на высоте 2 м над землей.
Tmax - Максимальная температура - максимум температуры воздуха на высоте 2 м над землей.
R - Количество осадков - Количество выпавших осадков за период времени, мм. При наведении курсора мыши на число - период времени, за который выпало указанное количество осадков.
R24 - Количество осадков - Количество выпавших осадков за 24 часа, мм.
S - Снежный покров - Высота снежного покрова, см. При наведении курсора мыши на число - состояние снежного покрова и степень покрытия местности в баллах.